Weather observations for the past three days for
Zapata, TX
Imperial (Metric)
Date Time (cdt) Wind (mph) Vis. (mi.) Weather Sky Cond. Temperature (ºF) Relative Humidity Wind Chill (°F) Heat Index (°F) Pressure Precipitation (in)
Air Dwpt 6 hour altimeter (in) sea level (mb) 1 hr 3 hr 6 hr
Max. Min.
08 05:35 NE 3 5.00 Fog/Mist BKN011 BKN026 OVC031 69.3 65.8 89% 29.87 0.0
08 05:15 Calm 5.00 Fog/Mist BKN011 BKN014 OVC025 69.8 65.7 87% 29.89 0.0
08 04:55 Calm 5.00 Overcast with Haze BKN013 OVC024 70 65.3 85% 29.89 0.0
08 04:35 Calm 7.00 Overcast OVC013 70.3 65.3 84% 29.9 0.0
08 04:15 NE 3 7.00 Overcast OVC013 70.7 65.3 83% 29.9 0.0
08 03:55 N 3 7.00 Overcast OVC013 70.7 65.5 84% 29.89 0.0
08 03:35 Calm 7.00 Overcast OVC013 70.7 65.5 84% 29.9 0.0
08 03:15 Calm 7.00 Overcast OVC013 70.9 65.7 84% 29.91 0.0
08 02:35 Calm 7.00 Overcast OVC013 70.9 65.8 84% 29.92 0.0
08 02:15 NE 5 7.00 Overcast OVC013 71.2 66 84% 29.92 0.0
08 01:55 N 3 7.00 Overcast OVC015 71.6 65.7 82% 29.93 0.0
08 01:35 Calm 7.00 Overcast OVC015 71.6 65.7 82% 29.95 0.0
08 01:15 Calm 7.00 Overcast OVC017 71.6 65.7 82% 29.96 0.0
08 00:55 Calm 7.00 Overcast OVC017 71.6 65.7 78.1 71.2 82% 29.97 0.0 0.01
08 00:35 Calm 7.00 Overcast OVC017 71.6 65.7 82% 29.97 0.0
08 00:15 Calm 7.00 Overcast OVC017 71.6 66 83% 29.96 0.0
07 23:55 Calm 7.00 Overcast OVC017 71.6 66.2 83% 29.96 0.0
07 23:35 Calm 7.00 Overcast OVC017 71.4 66 83% 29.95 0.0
07 23:15 N 6 7.00 Overcast OVC017 71.6 66.2 83% 29.91 0.0
07 22:55 N 7 7.00 Overcast OVC017 71.6 66.2 83% 29.92 0.0
07 22:35 NE 7 7.00 Overcast OVC017 71.8 66.4 83% 29.92 0.0
07 22:15 NE 3 7.00 Overcast OVC019 72.5 66.4 81% 29.95 0.0
07 21:55 Calm 7.00 Overcast OVC019 72.1 66.2 82% 29.96 0.0 0.01
07 21:35 Calm 7.00 Partly Cloudy SCT019 72 66 82% 29.93 0.0
07 21:15 NE 6 7.00 Fair CLR 71.8 65.7 81% 29.87 0.0
07 20:55 NE 9 G 18 7.00 Partly Cloudy SCT019 SCT030 71.6 66.4 84% 29.84 0.0 0.01
07 20:35 SE 12 G 18 7.00 Light Rain SCT021 BKN028 BKN032 71.8 67.1 85% 29.86 0.0 0.01
07 20:15 E 10 7.00 Rain OVC023 73.2 67.5 82% 29.9 0.0
07 19:55 E 7 7.00 Light Rain OVC023 75.6 65.8 72% 77 29.92 0.0
07 19:35 N 6 7.00 Mostly Cloudy BKN025 BKN035 77 64.6 66% 79 29.92 0.0
07 19:15 E 10 7.00 Mostly Cloudy BKN025 BKN031 77.7 65.1 65% 80 29.88 0.0
07 18:55 E 12 7.00 Overcast OVC027 78.3 65.3 84.2 78.3 65% 80 29.88 0.0
07 18:35 E 7 7.00 Mostly Cloudy BKN027 78.8 65.7 64% 81 29.89 0.0
07 18:15 NE 9 G 17 7.00 Mostly Cloudy BKN027 79.5 65.7 63% 81 29.86 0.0
07 17:55 NE 10 G 17 7.00 Mostly Cloudy BKN027 80.2 66.2 62% 82 29.88 0.0
07 17:35 E 9 7.00 Partly Cloudy SCT025 82 66 58% 84 29.87 0.0
07 17:15 E 9 7.00 Partly Cloudy SCT024 82.2 66.4 59% 85 29.87 0.0
07 16:55 E 9 7.00 Mostly Cloudy BKN024 BKN030 82.6 66.2 58% 85 29.88 0.0
07 16:35 NE 10 G 17 10.00 Overcast BKN024 OVC029 82.6 66.2 58% 85 29.88 0.0
07 16:15 E 9 7.00 Mostly Cloudy BKN026 BKN031 82 66.4 59% 84 29.89 0.0
07 15:55 NE 10 7.00 Overcast OVC028 82.2 66.4 59% 85 29.89 0.0
07 15:35 E 10 7.00 Overcast BKN025 OVC029 82.9 66.7 58% 85 29.9 0.0
07 15:15 E 9 7.00 Overcast OVC025 82.4 66.9 60% 85 29.9 0.0
07 14:55 E 10 7.00 Overcast OVC023 82.6 67.1 60% 85 29.9 0.0
07 14:35 E 9 7.00 Overcast OVC019 81.7 67.3 62% 84 29.92 0.0
07 14:15 E 13 G 18 7.00 Overcast OVC019 81.3 66.9 62% 84 29.92 0.0
07 13:55 E 12 7.00 Overcast OVC021 81.5 67.3 62% 84 29.92 0.0
07 13:35 E 10 7.00 Overcast OVC021 83.1 67.8 60% 86 29.93 0.0
07 13:15 E 8 7.00 Overcast OVC021 82.4 68 62% 85 29.94 0.0
07 12:55 E 9 7.00 Overcast OVC021 82.4 68.2 83.1 75.2 62% 85 29.95 0.0
07 12:35 E 8 7.00 Overcast OVC021 82 68.2 63% 85 29.95 0.0
07 12:15 E 7 7.00 Overcast OVC021 82.8 68 61% 86 29.95 0.0
07 11:55 NE 6 7.00 Overcast OVC021 81.9 68 63% 85 29.95 0.0
07 11:35 NE 6 G 9 7.00 Overcast OVC021 81.9 68 63% 85 29.95 0.0
07 11:15 NE 7 7.00 Overcast OVC021 81.5 68.2 64% 84 29.95 0.0
07 10:55 E 8 7.00 Overcast OVC017 79.7 68.2 68% 82 29.95 0.0
07 10:35 NE 5 7.00 Overcast OVC017 79.7 68 68% 82 29.95 0.0
07 10:15 NE 5 5.00 Overcast with Haze OVC015 78.8 67.6 69% 81 29.95 0.0
07 09:55 NE 6 5.00 Overcast with Haze OVC015 77.9 67.5 70% 80 29.95 0.0
07 09:35 NE 9 5.00 Overcast with Haze OVC013 76.8 66.7 71% 79 29.94 0.0
07 09:15 NE 9 7.00 Overcast BKN013 OVC020 77 66.4 70% 79 29.94 0.0
07 08:55 NE 8 7.00 Overcast BKN013 OVC023 76.1 66 71% 78 29.94 0.0
07 08:15 NE 8 7.00 Overcast OVC015 75.4 66.2 73% 77 29.93 0.0
07 07:55 NE 5 7.00 Overcast OVC013 75.4 66.4 74% 77 29.92 0.0
07 07:35 N 5 7.00 Overcast BKN013 OVC040 75.6 68 77% 77 29.9 0.0
07 07:15 NE 8 7.00 Overcast OVC011 75.6 69.8 82% 76 29.89 0.0
07 06:55 N 9 7.00 Overcast OVC011 76.3 71.1 80.8 76.3 84% 77 29.89 0.0
07 06:35 N 9 7.00 Overcast OVC011 77.9 72.3 83% 80 29.87 0.0
07 06:15 Calm 5.00 Fog/Mist SCT013 OVC029 79.2 75.2 88% 83 29.87 0.0
07 05:55 E 5 5.00 Fog/Mist SCT020 OVC027 79.2 75 87% 83 29.87 0.0
07 05:35 E 5 5.00 Fog/Mist BKN018 OVC025 79.2 75.2 88% 83 29.87 0.0
07 05:15 E 8 5.00 Overcast with Haze OVC014 79.5 74.8 86% 84 29.87 0.0
07 04:55 NE 5 5.00 Overcast with Haze OVC012 79.5 74.7 85% 84 29.87 0.0
07 04:35 E 9 5.00 Fog/Mist OVC010 79.2 74.5 86% 83 29.86 0.0
07 04:15 NE 8 5.00 Fog/Mist OVC008 79 75.2 88% 83 29.86 0.0
07 03:55 E 7 5.00 Fog/Mist OVC008 78.8 75.6 90% 82 29.86 0.0
07 03:35 NE 7 4.00 Fog/Mist OVC006 78.8 75.7 90% 82 29.86 0.0
07 03:15 NE 6 4.00 Fog/Mist OVC006 78.8 76.1 91% 83 29.86 0.0
07 02:55 E 6 4.00 Fog/Mist OVC006 78.4 76.3 93% 82 29.87 0.0
07 02:35 E 6 4.00 Fog/Mist SCT006 78.4 76.1 93% 82 29.87 0.0
07 02:15 E 5 5.00 Fog/Mist CLR 79 76.1 91% 83 29.87 0.0
07 01:55 E 5 5.00 Fog/Mist CLR 79.3 76.1 90% 84 29.87 0.0
07 01:35 E 5 5.00 Fog/Mist CLR 79.9 75.4 86% 85 29.87 0.0
07 01:15 E 3 5.00 Fair with Haze CLR 80.6 75.2 84% 86 29.86 0.0
07 00:55 E 5 5.00 Fair with Haze CLR 80.8 75.2 93.4 80.8 83% 87 29.86 0.0
07 00:35 E 8 5.00 Fair with Haze CLR 81.5 75.4 82% 88 29.86 0.0
07 00:15 E 7 7.00 Fair CLR 81.9 75.4 81% 89 29.86 0.0
06 23:35 E 10 7.00 Fair CLR 83.3 75.6 78% 91 29.86 0.0
06 23:15 E 6 5.00 Fair with Haze CLR 83.8 75.2 75% 92 29.85 0.0
06 22:55 E 7 5.00 Fair with Haze CLR 84.4 75.2 74% 93 29.84 0.0
06 22:35 E 7 5.00 Fair with Haze CLR 84.7 74.7 72% 93 29.83 0.0
06 22:15 E 8 5.00 Fair with Haze CLR 85.5 74.3 69% 94 29.83 0.0
06 21:55 E 9 5.00 Fair with Haze CLR 86 73.8 67% 94 29.82 0.0
06 21:35 E 8 7.00 Fair CLR 86.4 73 65% 94 29.81 0.0
06 20:55 E 5 7.00 Fair CLR 87.8 72.7 61% 95 29.79 0.0
06 20:35 E 5 7.00 Fair CLR 88.3 72.1 59% 95 29.78 0.0
06 20:15 E 7 7.00 Fair CLR 89.2 71.2 55% 96 29.77 0.0
06 19:55 E 8 7.00 Fair CLR 90.1 71.6 55% 97 29.75 0.0
06 19:35 E 10 7.00 Fair CLR 91.4 71.6 52% 99 29.74 0.0
06 19:15 E 10 7.00 Fair CLR 93.2 71.8 50% 101 29.73 0.0
06 18:55 E 10 G 18 7.00 Fair CLR 93.9 71.6 97.3 85.6 48% 102 29.72 0.0
06 18:35 E 9 G 16 7.00 Fair CLR 94.6 70.7 46% 102 29.71 0.0
06 18:15 E 9 G 17 7.00 Fair CLR 95.5 70.7 45% 103 29.7 0.0
06 17:55 NE 10 G 16 7.00 Fair CLR 96.6 68.5 40% 102 29.69 0.0
06 17:35 NE 12 G 17 7.00 Fair CLR 96.8 69.3 41% 103 29.69 0.0
06 17:15 NE 8 G 20 7.00 Fair CLR 96.6 68.2 40% 102 29.69 0.0
06 17:00 NE 12 G 16 7.00 Fair CLR 97.2 69.3 40% 103 29.7 0.0
06 16:35 NE 10 7.00 Fair CLR 95.9 70.2 43% 103 29.7 0.0
06 16:15 N 8 7.00 Fair CLR 96.1 70.7 44% 103 29.71 0.0
06 15:55 NE 8 5.00 Fair with Haze CLR 95.9 70.9 44% 103 29.72 0.0
06 15:35 N 9 5.00 Mostly Cloudy with Haze BKN041 95.2 71.2 46% 103 29.73 0.0
06 15:15 N 5 G 9 5.00 Mostly Cloudy with Haze BKN039 93.7 71.8 49% 102 29.74 0.0
06 14:55 NE 6 5.00 Mostly Cloudy with Haze BKN037 BKN049 92.1 72.5 53% 100 29.75 0.0
06 14:35 N 7 5.00 Mostly Cloudy with Haze BKN034 BKN049 91.4 72.5 54% 99 29.76 0.0
06 14:15 E 8 5.00 Partly Cloudy with Haze SCT032 91.8 72.5 53% 100 29.76 0.0
06 13:55 N 3 5.00 Mostly Cloudy with Haze BKN030 90 72.9 57% 98 29.77 0.0
06 13:35 Calm 4.00 Mostly Cloudy with Haze BKN030 89.4 72.7 58% 97 29.78 0.0
06 13:15 Calm 4.00 Overcast with Haze OVC028 87.1 72.9 63% 94 29.79 0.0
06 12:55 Calm 4.00 Overcast with Haze OVC028 85.5 72.5 86 79.7 65% 92 29.79 0.0
06 12:35 Calm 4.00 Overcast with Haze OVC028 86 72.9 65% 93 29.8 0.0
06 12:15 Calm 4.00 Overcast with Haze SCT021 OVC028 85.3 72.9 66% 92 29.79 0.0
06 11:35 Calm 3.00 Overcast with Haze BKN021 OVC028 83.5 72.9 70% 90 29.79 0.0
06 11:15 Calm 3.00 Overcast with Haze OVC021 82.8 73 73% 89 29.79 0.0
06 10:50 S 5 3.00 Overcast with Haze OVC019 82.4 72.9 73% 88 29.79 0.0
06 10:35 S 5 3.00 Overcast with Haze OVC019 82 72.7 73% 87 29.78 0.0
06 10:15 S 5 3.00 Overcast with Haze OVC021 82 72.5 73% 87 29.78 0.0
06 09:55 S 6 3.00 Overcast with Haze OVC019 81.7 72.5 74% 87 29.77 0.0
06 09:35 SE 6 3.00 Overcast with Haze OVC019 81.9 72.3 73% 87 29.77 0.0
06 09:15 SE 7 3.00 Overcast with Haze OVC019 81.5 72.5 74% 86 29.77 0.0
06 08:55 E 7 3.00 Overcast with Haze OVC021 81.5 72.5 74% 86 29.76 0.0
06 08:35 SE 8 3.00 Overcast with Haze OVC021 81.5 72.5 74% 86 29.76 0.0
06 08:15 SE 9 3.00 Mostly Cloudy with Haze BKN021 80.8 72.5 76% 85 29.75 0.0
06 07:55 SE 7 4.00 Overcast with Haze OVC021 80.2 72.5 77% 84 29.74 0.0
06 07:35 E 5 4.00 Overcast with Haze OVC021 79.9 72.5 78% 84 29.75 0.0
06 07:15 E 3 3.00 Overcast with Haze OVC019 79.7 72.1 78% 83 29.74 0.0
06 06:55 E 3 5.00 Overcast with Haze OVC019 79.7 72 81 79.7 77% 83 29.74 0.0
06 06:35 Calm 5.00 Overcast with Haze OVC019 80.1 72 76% 84 29.73 0.0
06 06:15 Calm 5.00 Overcast with Haze OVC019 80.1 72 76% 84 29.73 0.0
06 05:55 SE 3 5.00 Overcast with Haze OVC019 80.1 71.8 76% 84 29.73 0.0
06 05:35 SE 3 5.00 Overcast with Haze OVC019 79.9 71.8 76% 84 29.72 0.0
06 05:15 E 5 5.00 Overcast with Haze OVC021 79.9 71.8 76% 84 29.71 0.0
06 04:55 SE 3 5.00 Overcast with Haze OVC021 79.9 71.8 76% 84 29.71 0.0
06 04:35 SE 6 7.00 Overcast OVC021 80.2 71.8 75% 84 29.71 0.0
06 04:15 SE 7 7.00 Overcast OVC019 80.4 71.8 75% 84 29.7 0.0
06 03:55 SE 7 7.00 Overcast OVC019 80.6 72 75% 85 29.7 0.0
06 03:35 SE 7 7.00 Overcast OVC019 80.6 72.1 76% 85 29.71 0.0
06 03:15 SE 7 7.00 Overcast OVC019 80.6 72 75% 85 29.71 0.0
06 02:55 SE 8 7.00 Overcast OVC019 80.6 72.1 76% 85 29.71 0.0
06 02:35 SE 9 G 20 7.00 Overcast OVC019 80.8 72.1 75% 85 29.71 0.0
06 02:15 SE 13 G 20 7.00 Overcast OVC019 80.8 72.1 75% 85 29.71 0.0
06 01:55 SE 8 7.00 Overcast OVC019 80.8 72.1 75% 85 29.71 0.0
06 01:35 SE 10 G 21 7.00 Overcast OVC019 80.8 72.1 75% 85 29.71 0.0
06 01:15 SE 12 G 17 7.00 Overcast OVC019 81 72.1 75% 85 29.71 0.0
06 00:55 SE 13 G 20 7.00 Overcast OVC019 81 72.1 96.3 80.6 75% 85 29.71 0.0
06 00:35 SE 14 G 20 7.00 Overcast OVC019 81.1 72.1 74% 86 29.71 0.0
06 00:15 SE 10 G 24 7.00 Overcast OVC019 81.1 72.1 74% 86 29.71 0.0
05 23:55 SE 12 G 18 7.00 Overcast OVC019 81 72.1 75% 85 29.72 0.0
05 23:35 SE 12 G 21 7.00 Mostly Cloudy BKN019 80.8 72 75% 85 29.72 0.0
05 23:15 SE 12 G 20 10.00 Fair CLR 80.8 72 75% 85 29.72 0.0
05 22:55 SE 14 G 23 10.00 Fair CLR 81.5 72 73% 86 29.71 0.0
05 22:35 SE 15 G 20 10.00 Fair CLR 82.4 72.1 71% 87 29.71 0.0
05 22:15 SE 14 G 21 10.00 Fair CLR 83.7 71.8 68% 89 29.7 0.0
05 21:55 SE 14 G 21 10.00 Fair CLR 85.1 71.8 64% 91 29.69 0.0
05 21:35 SE 15 G 20 10.00 Fair CLR 86 71.8 63% 92 29.68 0.0
05 21:15 SE 7 G 18 10.00 Fair CLR 86.9 71.8 61% 93 29.67 0.0
05 20:55 SE 13 G 23 10.00 Fair CLR 87.8 71.6 59% 94 29.65 0.0
05 20:35 SE 13 G 16 10.00 Fair CLR 88.9 71.6 57% 95 29.65 0.0
05 20:15 SE 13 G 20 10.00 Fair CLR 90.3 71.6 54% 97 29.63 0.0
05 19:55 SE 10 G 20 10.00 Fair CLR 91.9 70.9 50% 99 29.62 0.0
05 19:35 SE 10 10.00 Fair CLR 94.1 69.8 45% 100 29.62 0.0
05 19:15 SE 13 G 16 10.00 Fair CLR 95.2 68.9 42% 101 29.62 0.0
05 18:55 SE 12 G 17 10.00 Fair CLR 96.8 68.2 100.8 92.1 39% 102 29.61 0.0
05 18:35 E 8 10.00 Fair CLR 98.2 65.8 35% 102 29.61 0.0
05 18:15 SE 8 10.00 Fair CLR 99.7 65.7 33% 104 29.61 0.0
05 17:55 SE 6 10.00 Fair CLR 99.9 65.5 33% 104 29.61 0.0
05 17:35 SE 8 10.00 Fair CLR 100.6 65.1 31% 104 29.61 0.0
05 17:15 SE 9 10.00 Fair CLR 100.2 64.9 32% 104 29.61 0.0
05 16:55 SE 8 10.00 Fair CLR 100.4 65.1 32% 104 29.61 0.0
05 16:35 S 8 G 18 10.00 Fair CLR 99.5 64.8 32% 103 29.62 0.0
05 16:15 SE 8 10.00 Fair CLR 100.8 65.5 32% 105 29.64 0.0
05 15:55 S 8 10.00 Fair CLR 100.6 65.5 32% 104 29.64 0.0
05 15:35 SE 5 10.00 Fair CLR 99.3 66 34% 103 29.65 0.0
05 15:15 E 8 10.00 Fair CLR 98.6 66 35% 103 29.66 0.0
05 14:55 SE 9 G 16 10.00 Fair CLR 98.4 66.6 35% 103 29.67 0.0
05 14:35 SE 8 10.00 Fair CLR 96.3 66.7 38% 100 29.68 0.0
05 14:15 S 3 G 10 10.00 Fair CLR 95.5 67.1 39% 100 29.69 0.0
05 13:55 S 10 G 17 10.00 Fair CLR 94.6 67.8 42% 99 29.7 0.0
05 13:35 SE 6 10.00 Fair CLR 94.1 67.8 42% 99 29.7 0.0
05 13:15 SE 7 G 20 10.00 Fair CLR 92.8 67.5 43% 97 29.72 0.0
05 12:55 S 9 G 17 10.00 Fair CLR 91.9 68 92.3 70.9 46% 96 29.73 0.0
05 12:35 S 9 G 18 10.00 Fair CLR 91.4 68.2 47% 96 29.74 0.0
05 12:15 SE 10 10.00 Fair CLR 90.5 68.5 49% 95 29.74 0.0
05 11:55 SE 6 G 16 10.00 Fair CLR 88.7 68.9 52% 93 29.75 0.0
05 11:35 SE 7 G 16 10.00 Fair CLR 87.1 69.3 56% 91 29.75 0.0
05 11:15 SE 10 G 16 10.00 Fair CLR 86.2 69.6 58% 91 29.75 0.0
05 10:55 SE 12 G 18 10.00 Fair CLR 84.4 69.8 62% 89 29.76 0.0
05 10:35 SE 9 10.00 Fair CLR 83.5 69.8 64% 88 29.75 0.0
05 10:15 S 12 G 16 10.00 Partly Cloudy SCT019 82 69.8 67% 86 29.76 0.0
05 09:55 SE 8 10.00 Mostly Cloudy BKN017 80.8 70.2 70% 84 29.77 0.0
05 09:15 SE 8 10.00 Mostly Cloudy BKN011 77.4 70.7 80% 79 29.77 0.0
05 08:55 S 7 10.00 Overcast OVC009 75.7 70.7 84% 76 29.77 0.0
05 08:15 SE 5 10.00 Partly Cloudy SCT013 73.6 70.9 91% 29.76 0.0
05 07:55 SE 6 10.00 Mostly Cloudy BKN013 72.7 70.7 94% 29.75 0.0
05 07:35 SE 3 10.00 Overcast OVC013 72 70.3 95% 29.75 0.0
05 07:15 SE 3 7.00 Overcast OVC013 71.6 70.2 95% 29.75 0.0
05 06:55 SE 3 10.00 Mostly Cloudy BKN013 70.9 69.4 74.3 70.9 95% 29.75 0.0
05 06:35 Calm 10.00 Fair CLR 71.2 69.6 95% 29.75 0.0
05 06:15 SE 3 10.00 Fair CLR 71.6 69.4 93% 29.75 0.0
05 05:55 SE 5 10.00 Fair CLR 72 69.4 92% 29.75 0.0
Date Time (cdt) Wind (mph) Vis. (mi.) Weather Sky Cond. Air Dwpt Max. Min. Relative Humidity Wind Chill (°F) Heat Index (°F) altimeter (in) sea level (mb) 1 hr 3 hr 6 hr
6 hour
Temperature (ºF) Pressure Precipitation (in)